Date String (YYYY-MM-DD hh:mm:ss) UTC,Instrument flags,Ambient pressure (hPa),Sample flow (lpm),Bypass flow (lpm),Sample temperature (°C),Ambient temperature (°C),ASC tube jacket temperature (°C),LED temperature (°C),Box temperature (°C),Sample RH (%),Span deviation,Mass concentration (μg/m³),Mass concentration (μg/m³),Mass concentration (μg/m³)
DateTimeUTC,F1_M11,P_M11,Q1_M11,Q2_M11,T1_M11,T2_M11,T3_M11,T4_M11,T5_M11,U1_M11,ZSPAN_M11,X2_M11,X0_M11,X1_M11
2023-05-25 21:00:00,,0828.7,4.99,0.00,29.2,27.0,00.0,37.4,30.8,28.1,0002.7,0010.18,0018.49,0009.52
2023-05-25 21:01:00,,0828.7,5.00,0.00,29.2,25.7,00.0,37.3,30.7,28.1,0002.7,0010.09,0018.91,0009.44
2023-05-25 21:02:00,,0828.7,5.00,0.00,29.1,25.5,00.0,37.3,30.6,28.2,0002.6,0009.98,0018.89,0009.33
2023-05-25 21:03:00,,0828.7,5.00,0.00,29.1,25.7,00.0,37.3,30.5,28.2,0002.6,0009.92,0018.79,0009.25
2023-05-25 21:04:00,,0828.6,5.01,0.00,29.0,26.1,00.0,37.3,30.5,28.3,0002.6,0009.87,0019.87,0009.19
2023-05-25 21:05:00,,0828.7,5.00,0.00,29.0,26.4,00.0,37.3,30.6,28.5,0002.4,0009.80,0020.84,0009.14
2023-05-25 21:06:00,,0828.6,5.00,0.00,29.0,26.7,00.0,37.4,30.6,28.4,0002.4,0009.74,0020.78,0009.11
2023-05-25 21:07:00,,0828.7,5.01,0.00,29.1,27.0,00.0,37.4,30.7,28.1,0002.6,0009.73,0019.98,0009.08
2023-05-25 21:08:00,,0828.7,5.00,0.00,29.1,27.2,00.0,37.4,30.7,28.3,0002.8,0009.74,0019.67,0009.08
2023-05-25 21:09:00,,0828.7,5.01,0.00,29.1,27.4,00.0,37.4,30.8,28.5,0002.9,0009.72,0019.95,0009.07
2023-05-25 21:10:00,,0828.7,4.99,0.00,29.1,27.5,00.0,37.4,30.8,28.2,0002.9,0009.69,0019.95,0009.04
2023-05-25 21:11:00,,0828.7,5.00,0.00,29.1,27.6,00.0,37.4,30.8,28.0,0002.8,0009.63,0019.73,0008.99
2023-05-25 21:12:00,,0828.7,5.00,0.00,29.2,27.7,00.0,37.4,30.8,27.9,0002.8,0009.58,0019.45,0008.95
2023-05-25 21:13:00,,0828.7,5.00,0.00,29.2,27.8,00.0,37.5,30.9,28.1,0002.9,0009.53,0019.17,0008.88
2023-05-25 21:14:00,,0828.7,5.00,0.00,29.2,27.9,00.0,37.5,30.9,28.7,0002.9,0009.46,0019.32,0008.80
2023-05-25 21:15:00,,0828.7,5.00,0.00,29.2,28.0,00.0,37.5,30.9,28.5,0002.8,0009.31,0018.92,0008.71
2023-05-25 21:16:00,,0828.6,5.00,0.00,29.3,28.0,00.0,37.5,31.0,28.3,0002.9,0009.25,0016.98,0008.65
2023-05-25 21:17:00,,0828.7,4.98,0.00,29.3,27.2,00.0,37.5,30.9,28.8,0003.0,0009.18,0016.68,0008.56
2023-05-25 21:18:00,,0828.6,5.00,0.00,29.2,25.8,00.0,37.4,30.7,29.2,0002.9,0009.09,0016.48,0008.47
2023-05-25 21:19:00,,0828.6,5.01,0.00,29.2,25.5,00.0,37.4,30.6,29.8,0002.8,0009.01,0017.81,0008.37
2023-05-25 21:20:00,,0828.6,5.01,0.00,29.1,25.7,00.0,37.4,30.5,29.5,0002.9,0008.91,0017.99,0008.27
2023-05-25 21:21:00,,0828.6,4.99,0.00,29.1,26.1,00.0,37.4,30.6,30.1,0003.0,0008.83,0018.08,0008.18
2023-05-25 21:22:00,,0828.5,5.00,0.00,29.1,26.4,00.0,37.4,30.6,29.5,0003.1,0008.80,0018.84,0008.13
2023-05-25 21:23:00,,0828.6,5.00,0.00,29.1,26.7,00.0,37.4,30.7,29.6,0003.2,0008.75,0018.34,0008.08
2023-05-25 21:24:00,,0828.7,5.01,0.00,29.1,27.0,00.0,37.4,30.7,29.6,0003.3,0008.71,0018.15,0008.05
2023-05-25 21:25:00,,0828.6,5.01,0.00,29.1,27.2,00.0,37.4,30.8,29.5,0003.3,0008.69,0017.78,0008.02
2023-05-25 21:26:00,,0828.6,4.99,0.00,29.1,27.3,00.0,37.4,30.8,29.4,0003.3,0008.75,0017.69,0008.01
2023-05-25 21:27:00,,0828.6,4.99,0.00,29.1,27.5,00.0,37.4,30.8,29.0,0003.3,0008.77,0017.78,0008.02
2023-05-25 21:28:00,,0828.6,5.00,0.00,29.2,27.6,00.0,37.4,30.8,29.3,0003.2,0008.78,0018.02,0008.04
2023-05-25 21:29:00,,0828.5,5.01,0.00,29.2,27.7,00.0,37.5,30.9,29.3,0003.4,0008.79,0018.57,0008.05
2023-05-25 21:30:00,,0828.6,5.01,0.00,29.2,27.8,00.0,37.5,30.9,29.4,0003.4,0008.80,0017.87,0008.06
2023-05-25 21:31:00,,0828.6,5.01,0.00,29.2,27.9,00.0,37.5,30.9,29.4,0003.3,0008.85,0017.42,0008.08
2023-05-25 21:32:00,,0828.5,5.00,0.00,29.3,28.0,00.0,37.5,31.0,29.3,0003.2,0008.88,0017.23,0008.10
2023-05-25 21:33:00,,0828.6,4.99,0.00,29.3,28.0,00.0,37.5,31.0,29.0,0003.2,0008.89,0016.31,0008.12
2023-05-25 21:34:00,,0828.5,5.00,0.00,29.3,28.0,00.0,37.5,31.0,29.1,0003.3,0008.88,0015.90,0008.11
2023-05-25 21:35:00,,0828.4,5.00,0.00,29.3,26.6,00.0,37.5,30.9,29.5,0003.2,0008.93,0016.00,0008.12
2023-05-25 21:36:00,,0828.4,5.00,0.00,29.3,25.7,00.0,37.4,30.7,29.3,0003.3,0008.98,0016.28,0008.18
2023-05-25 21:37:00,,0828.4,5.02,0.00,29.2,25.7,00.0,37.4,30.6,29.1,0003.3,0008.96,0016.27,0008.19
2023-05-25 21:38:00,,0828.4,5.00,0.00,29.1,25.9,00.0,37.4,30.6,29.7,0003.3,0008.96,0016.32,0008.17
2023-05-25 21:39:00,,0828.4,5.00,0.00,29.1,26.3,00.0,37.4,30.7,29.8,0003.3,0008.93,0016.44,0008.14
2023-05-25 21:40:00,,0828.4,5.00,0.00,29.1,26.6,00.0,37.4,30.7,29.7,0003.4,0008.93,0015.95,0008.14
2023-05-25 21:41:00,,0828.4,5.00,0.00,29.1,26.9,00.0,37.4,30.8,29.1,0003.2,0008.93,0015.30,0008.14
2023-05-25 21:42:00,,0828.4,5.01,0.00,29.1,27.1,00.0,37.5,30.8,29.1,0003.2,0008.91,0015.30,0008.15
2023-05-25 21:43:00,,0828.4,4.99,0.00,29.2,27.3,00.0,37.5,30.8,29.0,0003.3,0008.91,0015.31,0008.16
2023-05-25 21:44:00,,0828.3,5.00,0.00,29.2,27.5,00.0,37.5,30.9,29.1,0003.1,0008.95,0016.06,0008.18
2023-05-25 21:45:00,,0828.3,5.00,0.00,29.2,27.6,00.0,37.5,30.9,29.2,0003.0,0008.99,0016.23,0008.21
2023-05-25 21:46:00,,0828.3,5.00,0.00,29.2,27.8,00.0,37.5,30.9,28.8,0002.8,0009.03,0016.34,0008.24
2023-05-25 21:47:00,,0828.3,5.00,0.00,29.3,27.9,00.0,37.5,31.0,28.8,0002.6,0008.99,0016.64,0008.20
2023-05-25 21:48:00,,0828.2,5.00,0.00,29.3,28.0,00.0,37.5,31.0,28.8,0002.5,0008.98,0016.71,0008.17
2023-05-25 21:49:00,,0828.2,5.00,0.00,29.3,28.0,00.0,37.6,31.0,28.9,0002.6,0008.93,0017.03,0008.16
2023-05-25 21:50:00,,0828.2,4.99,0.00,29.4,28.1,00.0,37.6,31.1,28.7,0002.7,0008.96,0017.09,0008.17
2023-05-25 21:51:00,,0828.2,4.99,0.00,29.4,28.1,00.0,37.6,31.1,28.8,0002.6,0008.97,0017.08,0008.16
2023-05-25 21:52:00,,0828.1,4.99,0.00,29.4,26.8,00.0,37.6,30.9,28.8,0002.5,0008.99,0017.53,0008.17
2023-05-25 21:53:00,,0828.1,5.00,0.00,29.3,25.8,00.0,37.5,30.8,29.1,0002.3,0009.00,0017.67,0008.18
2023-05-25 21:54:00,,0828.1,5.00,0.00,29.3,25.7,00.0,37.4,30.7,29.4,0002.3,0009.00,0017.59,0008.18
2023-05-25 21:55:00,,0828.1,5.02,0.00,29.2,26.0,00.0,37.5,30.7,28.9,0002.4,0008.98,0017.27,0008.14
2023-05-25 21:56:00,,0828.1,4.99,0.00,29.2,26.3,00.0,37.5,30.7,28.7,0002.5,0008.88,0016.81,0008.05
2023-05-25 21:57:00,,0828.2,5.00,0.00,29.2,26.6,00.0,37.5,30.8,28.8,0002.5,0008.81,0016.80,0007.99
2023-05-25 21:58:00,,0828.2,5.00,0.00,29.2,26.9,00.0,37.5,30.8,29.1,0002.7,0008.80,0016.60,0007.96
2023-05-25 21:59:00,,0828.2,5.00,0.00,29.2,27.2,00.0,37.5,30.9,29.5,0002.7,0008.74,0016.31,0007.91
